When you browse on this site, cookies collect data to enhance your experience and personalize the content and advertising you see.
Visit our Privacy Policy to learn more. By continuing to use the site, you agree to this use of cookies and data.
  • în România
  • Lista ţărilor
  • Pe 7 zile
  • Temperatura apei
  • Hartă satelitară
  • Meteo pe hartă
  • Widget-uri
  • user-avatar
    Intrare

    Meteo pe oră la Shahabad

    Astăzi, 19 Februarie, Marţi

    Timp Temperatura Precipitaţii Vânt Presiune Umiditate
    00:00 +18°C° 0.1 mm 2 m/s 744 mmHg 63%
    01:00 +18°C° 0.1 mm 2 m/s 744 mmHg 66%
    02:00 +18°C° 0.1 mm 2 m/s 744 mmHg 68%
    03:00 +17°C° 0.4 mm 2 m/s 744 mmHg 74%
    04:00 +16°C° 0.4 mm 3 m/s 744 mmHg 79%
    05:00 +16°C° 0 mm 2 m/s 744 mmHg 83%
    06:00 +17°C° 0 mm 2 m/s 744 mmHg 81%
    07:00 +17°C° 0 mm 3 m/s 745 mmHg 79%
    08:00 +18°C° 0 mm 3 m/s 746 mmHg 78%
    09:00 +20°C° 0 mm 3 m/s 746 mmHg 69%
    10:00 +22°C° 0 mm 3 m/s 747 mmHg 61%
    11:00 +25°C° 0 mm 3 m/s 748 mmHg 52%
    12:00 +26°C° 0 mm 3 m/s 747 mmHg 50%
    13:00 +27°C° 0 mm 2 m/s 747 mmHg 47%
    14:00 +27°C° 0 mm 2 m/s 746 mmHg 44%
    15:00 +27°C° 0 mm 1 m/s 746 mmHg 48%
    16:00 +26°C° 0 mm 1 m/s 746 mmHg 51%
    17:00 +23°C° 0 mm 0 m/s 746 mmHg 55%
    18:00 +22°C° 0 mm 0 m/s 746 mmHg 57%
    19:00 +22°C° 0 mm 1 m/s 747 mmHg 58%
    20:00 +21°C° 0 mm 1 m/s 747 mmHg 60%
    21:00 +21°C° 0 mm 1 m/s 747 mmHg 62%
    22:00 +19°C° 0 mm 2 m/s 747 mmHg 65%
    23:00 +19°C° 0 mm 2 m/s 747 mmHg 68%

    Mâine, 20 Februarie, Miercuri

    Timp Temperatura Precipitaţii Vânt Presiune Umiditate
    00:00 +18°C° 0 mm 2 m/s 747 mmHg 69%
    01:00 +18°C° 0 mm 2 m/s 747 mmHg 70%
    02:00 +17°C° 0 mm 2 m/s 746 mmHg 70%
    03:00 +17°C° 0 mm 2 m/s 746 mmHg 69%
    04:00 +17°C° 0 mm 2 m/s 746 mmHg 68%
    05:00 +16°C° 0 mm 2 m/s 746 mmHg 67%
    06:00 +18°C° 0 mm 1 m/s 747 mmHg 65%
    07:00 +19°C° 0 mm 1 m/s 748 mmHg 64%
    08:00 +20°C° 0 mm 1 m/s 748 mmHg 63%
    09:00 +22°C° 0 mm 1 m/s 749 mmHg 58%
    10:00 +23°C° 0 mm 1 m/s 749 mmHg 53%
    11:00 +25°C° 0 mm 2 m/s 750 mmHg 49%
    12:00 +25°C° 0 mm 2 m/s 749 mmHg 51%
    13:00 +25°C° 0 mm 3 m/s 749 mmHg 53%
    14:00 +25°C° 0 mm 3 m/s 749 mmHg 55%
    15:00 +24°C° 0 mm 3 m/s 748 mmHg 59%
    16:00 +23°C° 0 mm 2 m/s 748 mmHg 62%
    17:00 +21°C° 0 mm 2 m/s 748 mmHg 66%
    18:00 +21°C° 0 mm 2 m/s 748 mmHg 66%
    19:00 +20°C° 0 mm 2 m/s 749 mmHg 66%
    20:00 +21°C° 0 mm 1 m/s 749 mmHg 65%
    21:00 +19°C° 0 mm 2 m/s 749 mmHg 65%
    22:00 +19°C° 0 mm 2 m/s 750 mmHg 66%
    23:00 +18°C° 0 mm 2 m/s 750 mmHg 66%

    Poimâine, 21 Februarie, Joi

    Timp Temperatura Precipitaţii Vânt Presiune Umiditate
    00:00 +18°C° 0 mm 2 m/s 749 mmHg 63%
    01:00 +19°C° 0 mm 3 m/s 749 mmHg 59%
    02:00 +19°C° 0 mm 3 m/s 748 mmHg 56%
    03:00 +18°C° 0 mm 3 m/s 748 mmHg 55%
    04:00 +18°C° 0 mm 2 m/s 748 mmHg 53%
    05:00 +17°C° 0 mm 2 m/s 748 mmHg 52%
    06:00 +18°C° 0 mm 2 m/s 748 mmHg 52%
    07:00 +19°C° 0 mm 2 m/s 749 mmHg 52%
    08:00 +21°C° 0 mm 1 m/s 750 mmHg 52%
    09:00 +23°C° 0 mm 1 m/s 750 mmHg 47%
    10:00 +25°C° 0 mm 1 m/s 751 mmHg 42%
    11:00 +27°C° 0 mm 1 m/s 751 mmHg 37%
    12:00 +28°C° 0 mm 2 m/s 750 mmHg 37%
    13:00 +29°C° 0 mm 2 m/s 749 mmHg 36%
    14:00 +30°C° 0 mm 3 m/s 748 mmHg 36%
    15:00 +29°C° 0 mm 2 m/s 748 mmHg 41%
    16:00 +28°C° 0 mm 2 m/s 747 mmHg 46%
    17:00 +27°C° 0 mm 1 m/s 747 mmHg 51%
    18:00 +26°C° 0 mm 2 m/s 747 mmHg 51%
    19:00 +25°C° 0 mm 2 m/s 748 mmHg 51%
    20:00 +24°C° 0 mm 2 m/s 748 mmHg 51%
    21:00 +24°C° 0 mm 2 m/s 748 mmHg 50%
    22:00 +23°C° 0 mm 2 m/s 748 mmHg 50%
    23:00 +23°C° 0 mm 2 m/s 748 mmHg 50%

    22 Februarie, Vineri

    Timp Temperatura Precipitaţii Vânt Presiune Umiditate
    00:00 +21°C° 0 mm 2 m/s 747 mmHg 50%
    01:00 +22°C° 0 mm 1 m/s 747 mmHg 51%
    02:00 +21°C° 0 mm 1 m/s 746 mmHg 51%
    03:00 +21°C° 0 mm 1 m/s 746 mmHg 52%
    04:00 +20°C° 0 mm 2 m/s 746 mmHg 52%
    05:00 +19°C° 0 mm 2 m/s 746 mmHg 52%
    06:00 +20°C° 0 mm 2 m/s 747 mmHg 54%
    07:00 +20°C° 0 mm 2 m/s 748 mmHg 55%
    08:00 +21°C° 0 mm 3 m/s 749 mmHg 56%
    09:00 +24°C° 0 mm 3 m/s 749 mmHg 52%
    10:00 +26°C° 0 mm 4 m/s 749 mmHg 48%
    11:00 +28°C° 0 mm 4 m/s 749 mmHg 44%
    12:00 +28°C° 0 mm 4 m/s 748 mmHg 42%
    13:00 +29°C° 0 mm 3 m/s 747 mmHg 40%
    14:00 +30°C° 0 mm 3 m/s 746 mmHg 39%
    15:00 +29°C° 0 mm 2 m/s 746 mmHg 43%
    16:00 +28°C° 0 mm 2 m/s 746 mmHg 47%
    17:00 +27°C° 0 mm 1 m/s 745 mmHg 51%
    18:00 +26°C° 0 mm 2 m/s 746 mmHg 51%
    19:00 +24°C° 0 mm 2 m/s 746 mmHg 52%
    20:00 +23°C° 0 mm 2 m/s 747 mmHg 53%
    21:00 +22°C° 0 mm 3 m/s 747 mmHg 56%
    22:00 +21°C° 0 mm 3 m/s 746 mmHg 60%
    23:00 +20°C° 0 mm 3 m/s 746 mmHg 64%

    23 Februarie, Sâmbătă

    Timp Temperatura Precipitaţii Vânt Presiune Umiditate
    00:00 +20°C° 0 mm 3 m/s 746 mmHg 67%
    01:00 +19°C° 0 mm 3 m/s 745 mmHg 69%
    02:00 +19°C° 0 mm 3 m/s 745 mmHg 72%
    03:00 +18°C° 0 mm 3 m/s 745 mmHg 73%
    04:00 +18°C° 0 mm 3 m/s 745 mmHg 75%
    05:00 +17°C° 0 mm 3 m/s 745 mmHg 76%
    06:00 +18°C° 0 mm 3 m/s 745 mmHg 76%
    07:00 +18°C° 0 mm 3 m/s 746 mmHg 75%
    08:00 +19°C° 0 mm 3 m/s 746 mmHg 74%
    09:00 +21°C° 0 mm 3 m/s 747 mmHg 66%
    10:00 +24°C° 0 mm 3 m/s 747 mmHg 57%
    11:00 +26°C° 0 mm 3 m/s 747 mmHg 49%
    12:00 +27°C° 0 mm 4 m/s 746 mmHg 45%
    13:00 +27°C° 0 mm 4 m/s 746 mmHg 41%
    14:00 +28°C° 0 mm 4 m/s 745 mmHg 37%
    15:00 +26°C° 0 mm 4 m/s 744 mmHg 42%
    16:00 +25°C° 0 mm 3 m/s 744 mmHg 48%
    17:00 +24°C° 0 mm 3 m/s 744 mmHg 53%
    18:00 +21°C° 0 mm 3 m/s 744 mmHg 56%
    19:00 +20°C° 0 mm 3 m/s 744 mmHg 58%
    20:00 +18°C° 0 mm 3 m/s 745 mmHg 60%
    21:00 +18°C° 0 mm 3 m/s 745 mmHg 61%
    22:00 +17°C° 0 mm 3 m/s 744 mmHg 61%
    23:00 +16°C° 0 mm 3 m/s 744 mmHg 62%

    24 Februarie, Duminică

    Timp Temperatura Precipitaţii Vânt Presiune Umiditate
    00:00 +16°C° 0 mm 3 m/s 744 mmHg 64%
    01:00 +14°C° 0 mm 3 m/s 744 mmHg 66%
    02:00 +14°C° 0 mm 3 m/s 743 mmHg 68%
    03:00 +14°C° 0 mm 3 m/s 743 mmHg 72%
    04:00 +13°C° 0 mm 3 m/s 743 mmHg 75%
    05:00 +13°C° 0 mm 3 m/s 743 mmHg 79%
    06:00 +14°C° 0 mm 3 m/s 744 mmHg 77%
    07:00 +16°C° 0 mm 3 m/s 744 mmHg 76%
    08:00 +17°C° 0 mm 3 m/s 745 mmHg 74%
    09:00 +19°C° 0 mm 3 m/s 745 mmHg 64%
    10:00 +21°C° 0 mm 3 m/s 746 mmHg 54%
    11:00 +24°C° 0 mm 3 m/s 746 mmHg 44%
    12:00 +25°C° 0 mm 4 m/s 745 mmHg 41%
    13:00 +25°C° 0 mm 4 m/s 745 mmHg 37%
    14:00 +26°C° 0 mm 4 m/s 744 mmHg 33%
    15:00 +25°C° 0 mm 4 m/s 744 mmHg 39%
    16:00 +22°C° 0 mm 3 m/s 743 mmHg 45%
    17:00 +21°C° 0 mm 3 m/s 743 mmHg 50%
    18:00 +20°C° 0 mm 3 m/s 743 mmHg 52%
    19:00 +18°C° 0 mm 3 m/s 744 mmHg 54%
    20:00 +17°C° 0 mm 3 m/s 744 mmHg 56%
    21:00 +16°C° 0 mm 3 m/s 744 mmHg 57%
    22:00 +16°C° 0 mm 3 m/s 744 mmHg 58%
    23:00 +14°C° 0 mm 3 m/s 744 mmHg 59%
    Arată mai mult